www.pogodaiklimat.ru

Погода и климат >> Архив погоды >> Россия >> Ненецкий АО >> Нижняя Пеша


ПОГОДА в Нижней Пеше

  • Прогноз погоды в Нижней Пеше
  • Монитор погоды в Нижней Пеше

АРХИВ ПОГОДЫ в Нижней Пеше

Время (UTC), дата Ветер
(напр.,м/с)
 
Видим.   Явления Облачность Т
(С)
Тd
(С)
f
(%)
Тe
(С)
Тes
(С)
Комфортность P
(гПа)
Po
(гПа)
Тmin
(С)
Tmax
(С)
R
(мм)
R24
(мм)
S
(см)
15 15.09 СВ 1 20 км 9/9 540 м
[Sc]
+10.7 +8.6 87 +10 +10 983.3 981.7 +13.8 2
18 15.09 СВ 1 10 км 10/10 500 м
[Sc]
+8.9 +8.2 95 +8 +8 982.6 981.0
21 15.09 С 2 10 км 9/0
[Ac trans]
+7.2 +6.8 97 +5 +5 981.7 980.1
00 16.09 СВ 2 10 км 10/0
[Ac As]
+7.0 +6.1 94 +5 +5 981.8 980.2
03 16.09 С 2 10 км слаб. ливневой дождь 9/4 600 м
[Cb cap Ac As]
+6.4 +5.5 94 +4 +4 982.2 980.6 +6.4 0.0
06 16.09 С 2 20 км {ливн. осадки} 10/10 360 м
[Sc]
+7.2 +6.1 93 +5 +5 982.2 980.6
09 16.09 СВ 1 20 км 9/9 600 м
[Sc]
+8.8 +5.8 81 +8 +9 983.4 981.8
12 16.09 Ю 1 20 км 8/8 600 м
[Sc]
+9.3 +5.6 78 +9 +9 984.2 982.6
15 16.09 ЮВ 1 20 км 8/3 600 м
[Sc Ac trans]
+7.4 +6.2 92 +6 +6 985.1 983.5 +9.5 0.3
18 16.09 Ю 3 10 км 10/10 150 м
[St]
+6.7 +6.5 99 +3 +3 996.0 984.4
21 16.09 Ю 2 10 км 10/10 240 м
[St]
+6.9 +6.2 95 +5 +5 986.4 984.8
00 17.09 ЮВ 2 10 км 10/10 240 м
[St]
+6.5 +5.8 95 +4 +4 986.9 985.3
03 17.09 ЮВ 2 2000 м дымка 10/10 270 м
[St]
+5.6 +5.1 97 +3 +3 997.7 986.1 +5.6
06 17.09 СВ 1 20 км 10/10 1080 м
[Sc]
+6.1 +5.6 97 +5 +5 988.6 987.0
09 17.09 СЗ 2 20 км 9/5 840 м
[Sc Ac trans]
+8.6 +4.8 77 +7 +8 989.4 987.8
12 17.09 СВ 4 10 км слаб. ливневой дождь 10/10 300 м
[Cb cap]
+7.1 +6.4 95 +3 +3 991.0 989.4
15 17.09 СВ 4 10 км слаб. ливневой дождь 10/10 360 м
[Cb cap]
+5.9 +5.0 94 +2 +2 992.3 990.7 +9.4 4
18 17.09 В 4 10 км {ливн. осадки} 10/10 900 м
[Sc]
+4.8 +1.5 79 +1 +1 993.4 991.8
21 17.09 В 2 10 км 10/0
[Ac und]
+3.2 +1.4 88 0 0 993.9 992.3
00 18.09 В 2 10 км 8/0
[Ac trans]
+2.6 +0.5 86 -1 -1 994.4 992.8
03 18.09 З 1 20 км 3/3 600 м
[Sc]
-1.6 -2.1 96 -4 -4 995.1 993.4 -1.7 0.0
06 18.09 СЗ 2 20 км 3/3 1000 м
[Cu med, cong]
+5.7 +1.7 75 +3 +5 995.5 993.9
09 18.09 СЗ 4
{11}
20 км {ливн. осадки} 4/4 1000 м
[Cb cap]
+7.6 +0.9 62 +5 +6 996.6 995.0
12 18.09 З 3 20 км {ливн. осадки} 8/8 1000 м
[Cb cap]
+6.8 +4.0 82 +4 +4 997.6 995.9
15 18.09 З 2 20 км {ливн. осадки} 8/8 930 м
[Cb cap]
+3.2 +1.7 90 0 0 998.3 996.6 +8.9 0.8
18 18.09 ЮЗ 2 10 км {ливн. осадки} 3/3 1000 м
[Cu med, cong]
+2.0 +0.9 92 -1 -1 998.9 997.2
21 18.09 З 2 10 км 3/3 1000 м
[Cu med, cong]
+1.1 +0.3 94 -3 -3 999.1 997.4
00 19.09 З 1 10 км 9/9 870 м
[Sc]
+2.6 +1.6 93 +1 +1 999.7 998.0
03 19.09 З 3 20 км в посл. час ливневой дождь 9/9 480 м
[Cb cap]
+2.2 +1.7 96 -2 -2 1000.0 998.3 +0.9 1
06 19.09 СЗ 3 20 км в посл. час ливневой дождь 6/6 400 м
[Cb calv]
+3.9 +2.4 90 0 +1 1000.2 998.5
09 19.09 СЗ 6 4000 м ливневой дождь 8/8 330 м
[Cb cap]
+3.5 +2.5 93 -2 -2 1000.9 999.2
12 19.09 З 3 10 км слаб. ливневой дождь 8/8 330 м
[Cb cap]
+5.1 +2.4 83 +2 +2 1001.2 999.5
15 19.09 З 4 4000 м ливневой дождь 8/8 270 м
[Cb cap]
+3.9 +2.4 90 -1 -1 1001.8 1000.1 +6.3 4
18 19.09 ЮЗ 3 10 км {ливн. осадки} 8/8 1200 м
[Sc]
+2.6 +1.6 93 -2 -2 1002.0 1000.3
21 19.09 ЮЗ 3 2000 м слаб. ливневой дождь 9/9 870 м
[Cb cap]
+2.0 +1.2 94 -2 -2 1002.1 1000.4
00 20.09 ЮЗ 3 10 км {ливн. осадки} 8/8 900 м
[Sc]
+1.5 +0.7 94 -3 -3 1002.1 1000.4
03 20.09 штиль 0 20 км 3/0
[Ci fib]
-0.8 -1.5 95 -2 -2 1001.9 1000.2 -1.1 4
06 20.09 ЮЗ 3 20 км в посл. час туман 9/6 180 м
[St Ac trans Ci fib]
+2.1 +1.8 98 -2 -2 1001.7 1000.0 -1.3
09 20.09 ЮЗ 3 20 км 8/5 420 м
[Sc Ci fib]
+4.4 +1.9 84 +1 +2 1001.8 1000.1
12 20.09 Ю 4 20 км 8/3 600 м
[Sc Ci fib]
+5.9 +0.5 68 +2 +3 1001.7 1000.0
15 20.09 Ю 3 20 км 6/3 600 м
[Sc Ci fib]
+3.3 +0.4 81 -1 -1 1001.2 999.5 +6.8
18 20.09 Ю 4 10 км ясно +0.3 -1.1 90 -5 -5 1000.6 998.9
21 20.09 Ю 4 10 км ясно -0.4 -1.6 92 -6 -6 999.8 998.1
00 21.09 Ю 3 20 км 10/10 240 м
[St]
+0.4 -0.5 94 -4 -4 999.2 997.5
03 21.09 ЮВ 3 4000 м дымка 10/10 180 м
[St]
+0.5 +0.2 98 -4 -4 998.5 996.8 -0.9
06 21.09 Ю 3 20 км 10/10 270 м
[St]
+1.5 +0.1 90 -3 -3 998.5 996.8
09 21.09 ЮВ 1 20 км 9/8 540 м
[Sc Ac trans]
+3.3 +0.1 80 +2 +2 997.2
12 21.09 Ю 1 20 км 9/4 600 м
[Cu med, cong Ac trans]
+3.5 +0.3 80 +2 +3 999.4 997.7
15 21.09 СВ 2 10 км слаб. ливневой дождь 9/8 500 м
[Cb cap Ac trans]
+2.5 +1 +1 999.5 997.8 +5.1 0.1
18 21.09 СВ 1 10 км {ливн. осадки} ясно -1.3 -1.8 96 -4 -4 999.6 997.9
21 21.09 В 1 10 км 9/9 540 м
[Sc]
-1.0 -1.4 97 -3 -3 999.9 998.2
00 22.09 СВ 2 10 км 10/10 500 м
[Sc]
-0.7 -1.1 97 -5 -5 1000.2 998.5
03 22.09 СВ 2 20 км 9/9 480 м
[Sc]
-0.4 -1.0 96 -4 -4 1000.6 998.9 -2.2
06 22.09 СВ 2 20 км 10/10 300 м
[St]
+0.6 -0.5 92 -3 -3 1001.2 999.5
09 22.09 СВ 2 20 км 5/3 300 м
[Cu hum Ac trans Ci fib]
+3.2 +0.6 83 0 +2 1001.5 999.8
12 22.09 С 2 20 км 9/9 900 м
[Cu hum]
+5.3 -1.2 63 +3 +3 1001.5 999.8

 

Местоположение метеостанции Нижняя Пеша (Ненецкий АО, Россия): широта 66.75 долгота 47.77 высота над уровнем моря 14 м.

В архиве по умолчанию представлена погода в Нижней Пеше за последнюю неделю. Архивные данные за месяц целиком и за предыдущие месяцы, начиная с января 2011 года, Вы можете получить, выбрав интересующий диапазон дат из раскрывающегося списка и нажав кнопку "Ввод!".


*Определитесь, кто Вы:
робот инопланетянин человек

Внимание! Время в таблицах - всемирное. Для получения местного времени необходимо прибавить поправку, которая равна 3 ч.

Смотрите также архив погоды в соседних городах и на ближайших метеорологических станциях:

Погода в Индиге (Ненецкий АО, Россия) (111 км)
Погода на Мысе Микулкин (Ненецкий АО, Россия) (126 км)
Погода в Мосеево (Архангельская область, Россия) (130 км)
Погода в Неси (Ненецкий АО, Россия) (137 км)
Погода в Коткино (Ненецкий АО, Россия) (150 км)
Погода в Мезене (Архангельская область, Россия) (186 км)
Погода в Шойне (Ненецкий АО, Россия) (199 км)
Погода в Абрамовском маяке (Архангельская область, Россия) (204 км)
Погода в Окуневом Носу (Коми, Россия) (220 км)
Погода в Койнасе (Архангельская область, Россия) (223 км)

Пояснения к столбцам:

Ветер - указаны скорость ветра в м/с - средняя за 10 мин, порывы в срок и между сроками (в фигурных скобках) и направление, откуда дует ветер: С - северный, СВ - северо-восточный, В - восточный, ЮВ - юго-восточный, Ю - южный, ЮЗ - юго-западный, З - западный, СЗ - северо-западный.
Видимость - горизонтальная дальность видимости в метрах или километрах. При видимости от 1 до 10 км при отсутствии осадков обычно наблюдается дымка, при ухудшении видимости до 1 км и менее - туман. В сухую погоду видимость может ухудшаться дымом, пылью или мглою.
Явления - указаны атмосферные явления, наблюдавшиеся в срок или в последний час перед сроком; фигурными скобками обозначены явления, наблюдавшиеся между сроками (за 1-3 часа до срока); квадратными скобками обозначены град или гололедные отложения с указанием их диаметра в мм.
Облачность - указаны через наклонную черту общая и нижняя облачность в баллах и высота нижней границы облаков в метрах; квадратными скобками обозначены формы облаков: Ci - перистые, Cs - перисто-слоистые, Cc - перисто-кучевые, Ac - высококучевые, As - высокослоистые, Sc - слоисто-кучевые, Ns - слоисто-дождевые, Cu - кучевые, Cb - кучево-дождевые. Подробнее классификацию облаков см. в Атласе облаков (PDF).
T - Температура воздуха - температура, измеренная на высоте 2 м над землей.
Td - Температура точки росы - температура, при понижении до которой содержащийся в воздухе водяной пар достигнет насыщения.
f - Относительная влажность воздуха - влажноcть воздуха, измеренная на высоте 2 м над землей.
Te - Эффективная температура - температура, которую ощущает одетый по сезону человек в тени. Характеристика душности погоды. При расчете учитывается влияние влажности воздуха и скорости ветра на теплоощущения человека.
Tes - Эффективная температура на солнце - температура, которую ощущает человек, с поправкой на солнечный нагрев. Характеристика знойности погоды. Зависит от высоты солнца над горизонтом, облачности и скорости ветра. Ночью, в пасмурную погоду, а также при ветре 12 м/с и более поправка равна нулю.
P - Атмосферное давление - приведенное к уровню моря атмосферное давление.
Po - Атмосферное давление - измеренное на уровне метеостанции атмосферное давление.
Tmin - Минимальная температура - минимум температуры воздуха на высоте 2 м над землей.
Tmax - Максимальная температура - максимум температуры воздуха на высоте 2 м над землей.
R - Количество осадков - Количество выпавших осадков за период времени, мм. При наведении курсора мыши на число - период времени, за который выпало указанное количество осадков.
R24 - Количество осадков - Количество выпавших осадков за 24 часа, мм.
S - Снежный покров - Высота снежного покрова, см. При наведении курсора мыши на число - состояние снежного покрова и степень покрытия местности в баллах.